Weather History for Providence, RI

Change the Weather History Date:

Sunday, May 19, 2013

  Actual Average Record
Temperature  
Mean Temperature 59 °F 59 °F  
Max Temperature 70 °F 69 °F 89 °F (1906)
Min Temperature 47 °F 49 °F 35 °F (2002)
Degree Days  
Heating Degree Days 6 6  
Month to date heating degree days 139 166  
Since 1 July heating degree days 5243 5516  
Cooling Degree Days 0 1  
Month to date cooling degree days 2 6  
Year to date cooling degree days 2 8  
Growing Degree Days 9 (Base 50)    
Moisture  
Dew Point 50 °F    
Average Humidity 76    
Maximum Humidity 100    
Minimum Humidity 51    
Precipitation  
Precipitation 0.18 in 0.11 in 1.15 in (1966)
Month to date precipitation 0.98 2.07  
Year to date precipitation 12.56 18.59  
Snow  
Snow 0.00 in 0.00 in 0.00 in (2001)
Month to date snowfall 0.0 0.0  
Since 1 July snowfall 46.3 33.8  
Snow Depth 0.00 in    
Sea Level Pressure  
Sea Level Pressure 30.31 in    
Wind  
Wind Speed 7 mph (South)    
Max Wind Speed 20 mph    
Max Gust Speed 24 mph    
Visibility 8 miles    
Events Rain    
T = Trace of Precipitation, MM = Missing Value Source: NWS Daily Summary

Daily Weather History Graph

Daily Weather History Graph

Search for Another Location

Airport:

Trip Planner

Search our weather history database for the weather conditions in past years. The results will help you decide how hot, cold, wet, or windy it might be!

Date:

Astronomy

May. 19, 2013 Rise Set
Actual Time 5:22 AM EDT 8:02 PM EDT
Civil Twilight 4:49 AM EDT 8:35 PM EDT
Nautical Twilight 4:09 AM EDT 9:15 PM EDT
Astronomical Twilight 3:23 AM EDT 10:01 PM EDT
Moon 1:59 PM EDT (5/19) 1:49 AM EDT (5/19)
Length of Visible Light 15h 45m
Length of Day
14h 40m
Waxing Gibbous, 65% of the Moon is Illuminated
May 19
Waxing Gibbous
May 25
Full
May 31
Last Quarter
Jun 8
New
Jun 16
First Quarter

Hourly Weather History & Observations

Time (EDT) Temp. Dew Point Humidity Pressure Visibility Wind Dir Wind Speed Gust Speed Precip Events Conditions
12:51 AM 52.0 °F 46.0 °F 80% 30.32 in 10.0 mi SSW 4.6 mph - N/A   Clear
1:51 AM 50.0 °F 45.0 °F 83% 30.31 in 10.0 mi SSW 5.8 mph - N/A   Clear
2:51 AM 48.9 °F 45.0 °F 86% 30.31 in 10.0 mi Calm Calm - N/A   Clear
3:51 AM 48.2 °F 46.4 °F 93% 30.31 in 10.0 mi Calm Calm - N/A   Clear
4:51 AM 48.0 °F 45.0 °F 89% 30.32 in 10.0 mi WSW 4.6 mph - N/A   Clear
5:51 AM 48.0 °F 45.0 °F 89% 30.34 in 10.0 mi Calm Calm - N/A   Scattered Clouds
6:51 AM 53.1 °F 46.9 °F 80% 30.35 in 10.0 mi Calm Calm - N/A   Scattered Clouds
7:51 AM 57.0 °F 46.9 °F 69% 30.35 in 10.0 mi SW 3.5 mph - N/A   Scattered Clouds
8:51 AM 62.1 °F 48.9 °F 62% 30.36 in 10.0 mi SSE 3.5 mph - N/A   Scattered Clouds
9:51 AM 64.9 °F 48.0 °F 54% 30.36 in 10.0 mi South 8.1 mph - N/A   Scattered Clouds
10:51 AM 66.0 °F 48.9 °F 54% 30.35 in 10.0 mi SSE 11.5 mph 18.4 mph N/A   Scattered Clouds
11:51 AM 66.9 °F 48.0 °F 51% 30.35 in 10.0 mi SW 9.2 mph - N/A   Mostly Cloudy
12:51 PM 68.0 °F 50.0 °F 52% 30.34 in 10.0 mi SSE 16.1 mph - N/A   Mostly Cloudy
1:51 PM 69.1 °F 50.0 °F 51% 30.32 in 10.0 mi SSE 11.5 mph - N/A   Mostly Cloudy
2:51 PM 66.0 °F 48.0 °F 52% 30.31 in 10.0 mi South 12.7 mph - N/A   Mostly Cloudy
3:51 PM 63.0 °F 48.0 °F 58% 30.32 in 10.0 mi South 11.5 mph - 0.00 in Rain Light Rain
4:51 PM 59.0 °F 52.0 °F 78% 30.32 in 10.0 mi SSW 9.2 mph - 0.00 in Rain Light Rain
5:51 PM 57.0 °F 53.1 °F 87% 30.31 in 10.0 mi SSW 8.1 mph - 0.02 in Rain Light Rain
6:20 PM 57.2 °F 53.6 °F 88% 30.30 in 7.0 mi South 8.1 mph - 0.01 in Rain Light Rain
6:31 PM 55.4 °F 53.6 °F 94% 30.31 in 8.0 mi South 8.1 mph - 0.02 in Rain Light Rain
6:51 PM 55.9 °F 54.0 °F 93% 30.30 in 6.0 mi South 9.2 mph - 0.03 in Rain Light Rain
7:13 PM 55.4 °F 53.6 °F 94% 30.29 in 8.0 mi South 8.1 mph - 0.01 in Rain Light Rain
7:19 PM 55.4 °F 53.6 °F 94% 30.30 in 6.0 mi South 4.6 mph - 0.01 in Rain Light Rain
7:51 PM 55.9 °F 54.0 °F 93% 30.30 in 3.0 mi South 9.2 mph - 0.03 in Rain Light Rain
8:43 PM 55.4 °F 53.6 °F 94% 30.29 in 2.5 mi South 10.4 mph - 0.03 in Rain Light Rain
8:51 PM 55.9 °F 54.0 °F 93% 30.29 in 2.5 mi South 8.1 mph - 0.03 in Rain Light Rain
9:15 PM 55.4 °F 53.6 °F 94% 30.29 in 3.0 mi South 10.4 mph - 0.00 in Rain Light Rain
9:51 PM 55.9 °F 54.0 °F 93% 30.28 in 2.5 mi SSE 6.9 mph - 0.00 in Rain Light Rain
10:34 PM 55.4 °F 53.6 °F 94% 30.27 in 2.0 mi South 5.8 mph - 0.02 in Rain Light Rain
10:51 PM 55.9 °F 55.0 °F 97% 30.26 in 2.0 mi South 8.1 mph - 0.03 in Rain Light Rain
10:58 PM 55.4 °F 55.4 °F 100% 30.25 in 3.0 mi South 8.1 mph - 0.00 in Rain Light Rain
11:51 PM 57.0 °F 55.0 °F 93% 30.24 in 4.0 mi South 10.4 mph 18.4 mph 0.01 in Rain Light Rain